INTELSAT 34 (IS-34) (40874 NORAD) Tracking and Keplerian Element Data

This shows tracking and keplerian element data for the satellite.

Feedback or suggestion? Click here.




ElementValue
Catalog40874
NameINTELSAT 34 (IS-34)
Epoch Orbit1185
Epoch Day315.01490337
Epoch Year2018
RAAN27.5198
Inclination0.0071
Eccentricity1.93E-05
Argument of Perigee337.9526
Mean Anonmoly354.5547
Mean Motion1.00272214
Decay Rate-2.89E-06
L11 40874U 15039A 18315.01490337 -.00000289 00000-0 00000-0 0 9996
L22 40874 0.0071 27.5198 0000193 337.9526 354.5547 1.00272214 11850

Live tracking and technical data element details for INTELSAT 34 (IS-34) (NORAD 40874). INTELSAT 34 (IS-34) can be tracked NOW for your location showing map with azimuth and elevation plus other details from your city location.

Track the satellite on the map from your city or location and see movement details for azimuth, elevation, latitude, longitude, range, height, and movement on the map or in text.







IsCatalogInMostPopularTable: catalog: 40874, numindb: 115
Update: records affected: 1



GetName: 40874 INTELSAT 34 (IS-34)

Hit Count: updated at: Mon, 12 Nov 2018 17:46:52 GMT